Overview Statistics Trail Chart Weather Telemetry Raw packets
 

This is the latest recevied weather packets stored in our database for station/object KC5DAQ-26. If no packets are shown the sender has not sent any weather packets the latest 10 day(s).

<< 545 546 547 548 549 550 551 >>
Time Temp. Humidity Pressure Rain* Wind** Luminosity Snow
1787768033 34.44° C 64% 1019.1 hPa 0 mm - 927 W/m² -
1787767971 34.44° C 63% 1019.1 hPa 0 mm - 925 W/m² -
1787767911 34.44° C 63% 1019.1 hPa 0 mm - 925 W/m² -
1787767851 34.44° C 62% 1019.2 hPa 0 mm - 925 W/m² -
1787767790 34.44° C 62% 1019.3 hPa 0 mm - 928 W/m² -
1787767732 34.44° C 63% 1019.2 hPa 0 mm - 928 W/m² -
1787767671 34.44° C 64% 1019.2 hPa 0 mm - 927 W/m² -
1787767610 34.44° C 63% 1019.2 hPa 0 mm - 925 W/m² -
1787767552 34.44° C 61% 1019.2 hPa 0 mm - 920 W/m² -
1787767491 34.44° C 61% 1019.2 hPa 0 mm - 920 W/m² -
1787767431 34.44° C 61% 1019.2 hPa 0 mm - 920 W/m² -
1787767370 34.44° C 61% 1019.2 hPa 0 mm - 920 W/m² -
1787767311 34.44° C 61% 1019.2 hPa 0 mm - 920 W/m² -
1787767251 34.44° C 63% 1019.2 hPa 0 mm - 920 W/m² -
1787767189 34.44° C 63% 1019.2 hPa 0 mm - 921 W/m² -
1787767129 34.44° C 61% 1019.2 hPa 0 mm - 920 W/m² -
1787767071 34.44° C 64% 1019.2 hPa 0 mm - 913 W/m² -
1787767010 34.44° C 65% 1019.2 hPa 0 mm - 909 W/m² -
1787766949 33.89° C 65% 1019.3 hPa 0 mm - 700 W/m² -
1787766890 33.89° C 65% 1019.2 hPa 0 mm - 299 W/m² -
1787766830 33.89° C 64% 1019.3 hPa 0 mm - 120 W/m² -
1787766770 33.89° C 64% 1019.2 hPa 0 mm - 120 W/m² -
1787766712 34.44° C 64% 1019.3 hPa 0 mm - 121 W/m² -
1787766652 34.44° C 64% 1019.3 hPa 0 mm - 179 W/m² -
1787766591 34.44° C 64% 1019.3 hPa 0 mm - 522 W/m² -

* Rain latest hour (hover to see other rain measurements)
** Current wind speed in m/s (hover to see current wind gust speed)